Location: Chippewa Lake
(41.0698°N, 81.9010°W)
Time: 02:01:33
(UTC+00:00)

Cosmos 1821 Rocket - Pass Details

Date: 09 May 2021
Orbit: 945 x 1005 km, 82.9° (Epoch: 24 June)

Event Time Altitude Azimuth Distance (km) Brightness Sun altitude
Rises 05:16:03 0° 355° (N) 3,741 8.2 -31.5°
Reaches altitude 10° 05:18:38 10° 358° (N) 2,788 7.3 -31.5°
Enters shadow 05:24:45 65° 66° (ENE) 1,095 4.2 -31.5°
